Weather History for Kahului, HI

Change the Weather History Date:

Monday, November 4, 2013

  Actual Average Record
Temperature  
Mean Temperature 79 °F 77 °F  
Max Temperature 86 °F 85 °F 92 °F (1995)
Min Temperature 72 °F 69 °F 61 °F (1970)
Degree Days  
Heating Degree Days 0 0  
Month to date heating degree days 0 0  
Since 1 July heating degree days 0 0  
Cooling Degree Days 14 12  
Month to date cooling degree days 57 48  
Year to date cooling degree days 3710 3424  
Growing Degree Days 29 (Base 50)    
Moisture  
Dew Point 66 °F    
Average Humidity 65    
Maximum Humidity 79    
Minimum Humidity 51    
Precipitation  
Precipitation T in 0.05 in 3.14 in (1988)
Month to date precipitation 0.09 0.21  
Year to date precipitation 9.04 12.49  
Snow  
Snow 0.00 in - - ()
Month to date snowfall 0.0  
Since 1 July snowfall 0.0  
Since 1 September snowfall 0.0  
Snow Depth 0.00 in    
Sea Level Pressure  
Sea Level Pressure 30.02 in    
Wind  
Wind Speed 13 mph (NE)    
Max Wind Speed 24 mph    
Max Gust Speed 30 mph    
Visibility 10 miles    
Events      
T = Trace of Precipitation, MM = Missing Value Source: NWS Daily Summary

Daily Weather History Graph

Daily Weather History Graph

Search for Another Location

Airport:

Trip Planner

Search our weather history database for the weather conditions in past years. The results will help you decide how hot, cold, wet, or windy it might be!

Date:

Astronomy

Nov. 04, 2013 Rise Set
Actual Time 6:29 AM HST 5:48 PM HST
Civil Twilight 6:07 AM HST 6:11 PM HST
Nautical Twilight 5:40 AM HST 6:37 PM HST
Astronomical Twilight 5:14 AM HST 7:03 PM HST
Moon 7:44 AM HST (11/4) 7:12 PM HST (11/4)
Length of Visible Light 12h 04m
Length of Day
11h 18m
Waxing Crescent, 3% of the Moon is Illuminated
Nov 4
Waxing Crescent
Nov 9
First Quarter
Nov 17
Full
Nov 25
Last Quarter
Dec 2
New

Hourly Weather History & Observations

Time (HST) Temp. Heat Index Dew Point Humidity Pressure Visibility Wind Dir Wind Speed Gust Speed Precip Events Conditions
12:54 AM 73.0 °F - 64.9 °F 76% 30.04 in 10.0 mi ENE 5.8 mph - N/A   Mostly Cloudy
1:54 AM 73.0 °F - 64.9 °F 76% 30.03 in 10.0 mi NE 9.2 mph - N/A   Clear
2:54 AM 73.9 °F - 64.9 °F 73% 30.02 in 10.0 mi NE 8.1 mph - N/A   Clear
3:54 AM 73.9 °F - 64.9 °F 73% 30.02 in 10.0 mi NE 9.2 mph - N/A   Clear
4:54 AM 72.0 °F - 64.9 °F 78% 30.02 in 10.0 mi NE 5.8 mph - N/A   Clear
5:54 AM 73.0 °F - 64.9 °F 76% 30.02 in 10.0 mi NE 8.1 mph - N/A   Partly Cloudy
6:54 AM 73.9 °F - 66.9 °F 79% 30.04 in 10.0 mi NNE 10.4 mph - N/A   Partly Cloudy
7:54 AM 78.1 °F - 66.0 °F 66% 30.05 in 10.0 mi NNE 11.5 mph - N/A   Partly Cloudy
8:54 AM 82.0 °F 84.5 °F 66.9 °F 60% 30.06 in 10.0 mi NE 13.8 mph - N/A   Clear
9:54 AM 82.0 °F 84.1 °F 66.0 °F 58% 30.06 in 10.0 mi NE 12.7 mph 21.9 mph N/A   Clear
10:54 AM 84.0 °F 86.5 °F 66.9 °F 56% 30.04 in 10.0 mi NE 20.7 mph - N/A   Partly Cloudy
11:54 AM 84.0 °F 87.0 °F 68.0 °F 58% 30.01 in 10.0 mi NE 20.7 mph - N/A   Scattered Clouds
12:54 PM 84.0 °F 87.0 °F 68.0 °F 58% 29.99 in 10.0 mi NE 23.0 mph - N/A   Scattered Clouds
1:54 PM 86.0 °F 88.2 °F 66.0 °F 51% 29.96 in 10.0 mi NE 18.4 mph - N/A   Scattered Clouds
2:54 PM 84.0 °F 86.5 °F 66.9 °F 56% 29.95 in 10.0 mi NE 23.0 mph - N/A   Clear
3:54 PM 82.9 °F 85.4 °F 66.9 °F 58% 29.96 in 10.0 mi NE 21.9 mph 28.8 mph N/A   Scattered Clouds
4:54 PM 81.0 °F 83.0 °F 66.0 °F 60% 29.96 in 10.0 mi ENE 19.6 mph 27.6 mph N/A   Scattered Clouds
5:54 PM 78.1 °F - 64.9 °F 64% 29.99 in 10.0 mi ENE 17.3 mph 23.0 mph N/A   Scattered Clouds
6:54 PM 77.0 °F - 64.9 °F 66% 30.00 in 10.0 mi NE 13.8 mph - N/A   Scattered Clouds
7:54 PM 75.9 °F - 66.0 °F 71% 30.03 in 10.0 mi NE 11.5 mph - N/A   Clear
8:54 PM 73.9 °F - 66.0 °F 76% 30.04 in 10.0 mi ENE 4.6 mph - N/A   Partly Cloudy
9:54 PM 75.9 °F - 64.9 °F 69% 30.04 in 10.0 mi NE 8.1 mph - N/A   Partly Cloudy
10:54 PM 75.0 °F - 66.0 °F 73% 30.04 in 10.0 mi NE 5.8 mph - 0.00 in   Scattered Clouds
11:54 PM 75.0 °F - 66.0 °F 73% 30.03 in 10.0 mi NNE 6.9 mph - N/A   Overcast